Погода в Ирбейском

Россия / Красноярский край     55°38′36″N   95°27′34″E
темп.,
°C
ветер,
м/с
пор.,
м/с
влажн.,
%
обл.,
%
осадки,
мм/ч
давл.,
гПа
погр.,
м
11 мая, вт
вт1101:00+6ююз22792 0.4 102111
04:00+4ююв22885 0.0 102010
07:00+7юв22770 0.0 1020134
10:00+12вюв23592 0.0 1019619
13:00+16всв34395 0.0 10172188
16:00+17св543560 0.0 10152328
19:00+15ссв35495 0.0 1015132
22:00+10св612736 0.0 1017372
12 мая, ср
ср1201:00+8св5108546 0.0 1018414
04:00+4св49875 0.0 1019306
07:00+6всв467355 0.0 1020416
10:00+9св55535 0.0 10191119
13:00+11св44370 0.0 10181639
16:00+12св44340 0.0 10171743
19:00+11св46430 0.0 1017581
22:00+6всв37550 0.0 1019128
13 мая, чт
чт1301:00+4всв22560 0.0 101926
04:00+3всв22605 0.0 101920
07:00+6в25530 0.0 1019201
10:00+11в45332 0.0 10171534
13:00+14в44280 0.0 10151730
16:00+15всв33265 0.0 10141915
19:00+13всв35395 0.0 1013178
22:00+8всв2350100 0.0 101331
14 мая, пт
пт1401:00+5вюв115252 0.0 101310
04:00+3ю226147 0.0 101211
07:00+6ююз2358100 0.0 1012139
10:00+13юз3541100 0.0 1009615
13:00+17зюз483192 0.0 10072728
16:00+12зсз896380 0.1 1008860
19:00+8з5982100 3.6 1011937
22:00+5зсз71183100 0.2 1015968
15 мая, сб
сб1501:00+3з8138097 0.3 1017923
04:00+3з7137724 0.0 10181153
07:00+4з7126973 0.0 10201422
10:00+7з81149100 0.1 10192175
13:00+8зюз81154100 0.2 10171809
16:00+5зюз71384100 1.1 10161223
19:00+2зсз61093100 3.4 1016734
22:00